Time,TemperatureF,DewpointF,PressureIn,WindDirection,WindDirectionDegrees,WindSpeedMPH,WindSpeedGustMPH,Humidity,HourlyPrecipIn,Conditions,Clouds,dailyrainin,SoftwareType,DateUTC
2013-06-16 10:03:00,79.9,66.6,30.12,SW,225,2.0,-999.0,64,-99.99,,,0.00,meteohub,2013-06-16 14:03:00,
2013-06-16 10:04:00,79.9,66.6,30.12,SW,225,2.0,-999.0,64,-99.99,,,0.00,meteohub,2013-06-16 14:04:00,
2013-06-16 10:09:00,79.9,66.6,30.12,SW,225,2.0,-999.0,64,-99.99,,,0.00,meteohub,2013-06-16 14:09:00,
2013-06-16 10:14:00,81.1,67.3,30.12,West,270,5.0,5.0,63,0.00,,,0.00,meteohub,2013-06-16 14:14:00,
2013-06-16 10:19:00,81.1,67.3,30.12,SW,225,4.0,5.0,63,0.00,,,0.00,meteohub,2013-06-16 14:19:00,
2013-06-16 10:25:00,81.1,67.3,30.12,SW,225,4.0,5.0,63,0.00,,,0.00,meteohub,2013-06-16 14:25:00,
2013-06-16 10:30:00,81.5,66.7,30.12,SW,225,5.0,5.0,61,0.00,,,0.00,meteohub,2013-06-16 14:30:00,
2013-06-16 10:35:00,81.5,67.3,30.12,SE,135,6.0,12.0,62,0.00,,,0.00,meteohub,2013-06-16 14:35:00,
2013-06-16 10:40:00,81.9,68.0,30.12,NE,45,4.0,12.0,63,0.00,,,0.00,meteohub,2013-06-16 14:40:00,
2013-06-16 10:45:00,82.2,68.4,30.12,South,180,4.0,12.0,63,0.00,,,0.00,meteohub,2013-06-16 14:45:00,
2013-06-16 10:50:00,82.6,67.8,30.12,West,270,4.0,7.0,61,0.00,,,0.00,meteohub,2013-06-16 14:50:00,
2013-06-16 10:55:00,82.9,67.6,30.12,South,180,7.0,7.0,60,0.00,,,0.00,meteohub,2013-06-16 14:55:00,
2013-06-16 11:00:00,82.9,67.6,30.12,NW,315,2.0,7.0,60,0.00,,,0.00,meteohub,2013-06-16 15:00:00,
2013-06-16 11:05:00,83.5,67.6,30.12,NE,45,2.0,8.0,59,0.00,,,0.00,meteohub,2013-06-16 15:05:00,
2013-06-16 11:10:00,83.7,67.3,30.11,North,0,4.0,8.0,58,0.00,,,0.00,meteohub,2013-06-16 15:10:00,
2013-06-16 11:15:00,83.8,68.5,30.11,East,90,3.0,8.0,60,0.00,,,0.00,meteohub,2013-06-16 15:15:00,
2013-06-16 11:20:00,84.2,68.7,30.11,North,0,6.0,8.0,60,0.00,,,0.00,meteohub,2013-06-16 15:20:00,
2013-06-16 11:25:00,84.4,68.0,30.10,SW,225,4.0,6.0,58,0.00,,,0.00,meteohub,2013-06-16 15:25:00,
2013-06-16 11:30:00,85.1,68.2,30.10,SE,135,4.0,6.0,57,0.00,,,0.00,meteohub,2013-06-16 15:30:00,
2013-06-16 11:35:00,84.9,68.0,30.10,North,0,2.0,6.0,57,0.00,,,0.00,meteohub,2013-06-16 15:35:00,
2013-06-16 11:40:00,85.6,69.1,30.10,SE,135,6.0,8.0,58,0.00,,,0.00,meteohub,2013-06-16 15:40:00,
2013-06-16 11:45:00,85.8,68.4,30.10,SE,135,4.0,8.0,56,0.00,,,0.00,meteohub,2013-06-16 15:45:00,
2013-06-16 11:50:00,85.8,68.4,30.10,SW,225,4.0,8.0,56,0.00,,,0.00,meteohub,2013-06-16 15:50:00,
2013-06-16 11:55:00,86.2,68.2,30.10,North,0,4.0,8.0,55,0.00,,,0.00,meteohub,2013-06-16 15:55:00,
2013-06-16 12:00:00,86.5,68.4,30.10,SW,225,5.0,6.0,55,0.00,,,0.00,meteohub,2013-06-16 16:00:00,
2013-06-16 12:05:00,86.7,68.5,30.10,SW,225,5.0,6.0,55,0.00,,,0.00,meteohub,2013-06-16 16:05:00,
2013-06-16 12:10:00,86.5,68.0,30.10,WSW,248,6.0,6.0,54,0.00,,,0.00,meteohub,2013-06-16 16:10:00,
2013-06-16 12:15:00,86.5,67.5,30.09,NW,315,4.0,6.0,53,0.00,,,0.00,meteohub,2013-06-16 16:15:00,
2013-06-16 12:20:00,86.5,67.5,30.10,NW,315,4.0,6.0,53,0.00,,,0.00,meteohub,2013-06-16 16:20:00,
2013-06-16 12:25:00,85.8,67.8,30.09,SE,135,4.0,6.0,55,0.00,,,0.00,meteohub,2013-06-16 16:25:00,
2013-06-16 12:30:00,85.6,67.6,30.09,SE,135,5.0,6.0,55,0.00,,,0.00,meteohub,2013-06-16 16:30:00,
2013-06-16 12:35:00,84.7,66.7,30.09,NE,45,4.0,7.0,55,0.00,,,0.00,meteohub,2013-06-16 16:35:00,
2013-06-16 12:40:00,83.5,66.6,30.09,South,180,4.0,7.0,57,0.00,,,0.00,meteohub,2013-06-16 16:40:00,
2013-06-16 12:45:00,83.1,66.7,30.09,SE,135,5.0,7.0,58,0.00,,,0.00,meteohub,2013-06-16 16:45:00,
2013-06-16 12:50:00,83.1,66.7,30.09,SE,135,5.0,5.0,58,0.00,,,0.00,meteohub,2013-06-16 16:50:00,
2013-06-16 12:55:00,83.1,66.7,30.10,SE,135,5.0,5.0,58,0.00,,,0.00,meteohub,2013-06-16 16:55:00,
2013-06-16 17:12:00,84.9,68.0,30.05,South,180,3.0,-999.0,57,-99.99,,,0.00,meteohub,2013-06-16 21:12:00,
2013-06-16 17:17:00,84.9,68.0,30.06,South,180,3.0,3.0,57,0.00,,,0.00,meteohub,2013-06-16 21:17:00,
2013-06-16 17:21:00,84.9,68.0,30.06,South,180,3.0,3.0,57,0.00,,,0.00,meteohub,2013-06-16 21:21:00,
2013-06-16 19:32:00,80.1,66.7,30.05,South,180,2.0,-999.0,64,-99.99,,,0.00,meteohub,2013-06-16 23:32:00,
2013-06-16 19:37:00,80.1,66.7,30.05,South,180,2.0,2.0,64,0.00,,,0.00,meteohub,2013-06-16 23:37:00,
2013-06-16 19:42:00,80.1,66.7,30.06,South,180,2.0,2.0,64,0.00,,,0.00,meteohub,2013-06-16 23:42:00,
2013-06-16 19:47:00,79.5,66.7,30.06,South,180,3.0,3.0,65,0.00,,,0.00,meteohub,2013-06-16 23:47:00,
2013-06-16 19:52:00,79.5,66.7,30.06,NE,45,2.0,3.0,65,0.00,,,0.00,meteohub,2013-06-16 23:52:00,
2013-06-16 19:57:00,79.5,66.7,30.06,NE,45,2.0,3.0,65,0.00,,,0.00,meteohub,2013-06-16 23:57:00,
2013-06-16 20:02:00,79.3,66.9,30.06,North,0,2.0,3.0,66,0.00,,,0.00,meteohub,2013-06-17 00:02:00,
2013-06-16 20:07:00,79.3,66.9,30.06,North,0,2.0,2.0,66,0.00,,,0.00,meteohub,2013-06-17 00:07:00,
2013-06-16 20:12:00,79.3,66.9,30.05,North,0,2.0,2.0,66,0.00,,,0.00,meteohub,2013-06-17 00:12:00,
2013-06-16 20:23:00,78.3,67.6,30.06,SW,225,2.0,2.0,70,0.00,,,0.00,meteohub,2013-06-17 00:23:00,
2013-06-16 20:29:00,77.7,68.0,30.06,South,180,1.0,2.0,72,0.00,,,0.00,meteohub,2013-06-17 00:29:00,
2013-06-16 20:33:00,77.7,68.0,30.06,South,180,1.0,2.0,72,0.00,,,0.00,meteohub,2013-06-17 00:33:00,
2013-06-16 20:39:00,77.7,68.0,30.06,South,180,1.0,2.0,72,0.00,,,0.00,meteohub,2013-06-17 00:39:00,
2013-06-16 20:44:00,77.7,68.0,30.06,South,180,1.0,2.0,72,0.00,,,0.00,meteohub,2013-06-17 00:44:00,
2013-06-16 20:59:00,75.7,67.6,30.07,SW,225,3.0,-999.0,76,0.00,,,0.00,meteohub,2013-06-17 00:59:00,
2013-06-16 21:04:00,75.7,67.6,30.08,SW,225,3.0,-999.0,76,0.00,,,0.00,meteohub,2013-06-17 01:04:00,
2013-06-16 21:09:00,75.7,67.6,30.08,SW,225,3.0,3.0,76,0.00,,,0.00,meteohub,2013-06-17 01:09:00,